Flag for Greenland Weather past 2 weeks in Nuuk, Greenland

Now
52 °F

Passing clouds.


Feels Like: 48 °F
Forecast: 44 / 56 °F
Wind: 10 mph from South

Location: Godthaab / Nuuk

Current Time: Jul 3, 2015 at 2:17:10 PM

Latest Report: Jul 3, 2015 at 1:50 PM


Visibility: N/A

Pressure: 30.18 "Hg

Humidity: 62%

Dew point: 39 °F

Location of NuukLocation

Historic Weather in Nuuk — Graph

°F

Nuuk temperature yesterday

Maximum temperature yesterday: 52 °F (at 1:50 PM)
Minimum temperature yesterday: 45 °F (at 4:50 AM)
Average temperature yesterday: 49 °F

Past Weeks' High & Low Weather Summary

 TemperatureHumidityPressure
High63 °F (Jul 1, 4:50 PM)100% (Jun 18, 1:50 PM)30.18 "Hg (Jun 18, 1:50 PM)
Low32 °F (Jun 19, 4:50 AM)31% (Jun 28, 5:50 PM)29.56 "Hg (Jun 18, 12:50 PM)
Average49 °F67%29.98 "Hg
* Reported Jun 18 12:50 PM — Jul 3 12:50 PM, Nuuk, Weather by CustomWeather, © 2015

Note: Actual official high and low records may vary slightly from our data, if they occured in-between our weather recording intervals... More about our weather records

Advertising

Nuuk weather history for previous 24 hours

 ConditionsComfort  
Time TempWeatherWind HumidityBarometerVisibility
12:50 PM
Fri, Jul 3
55 °FScattered clouds.8 mph59%30.18 "HgN/A
11:50 AM55 °FScattered clouds.8 mph59%30.18 "HgN/A
10:50 AM55 °FScattered clouds.3 mph63%30.15 "HgN/A
9:50 AM54 °FScattered clouds.3 mph63%30.15 "HgN/A
8:50 AM54 °FScattered clouds.No wind63%30.15 "HgN/A
7:50 AM50 °FScattered clouds.No wind71%30.15 "HgN/A
6:50 AM48 °FScattered clouds.No wind76%30.15 "HgN/A
5:50 AM50 °FScattered clouds.No wind71%30.15 "HgN/A
4:50 AM46 °FPassing clouds.1 mph82%30.15 "HgN/A
3:50 AM48 °FPassing clouds.1 mph71%30.15 "HgN/A
2:50 AM48 °FPassing clouds.8 mph71%30.15 "HgN/A
1:50 AM48 °FCool.1 mph71%30.15 "HgN/A
12:50 AM48 °FCool.No wind71%30.18 "HgN/A
11:50 PM
Thu, Jul 2
48 °FCool.No wind71%30.18 "HgN/A
10:50 PM50 °FCool.No wind71%30.18 "HgN/A
9:50 PM50 °FCool.1 mph67%30.18 "HgN/A
8:50 PM50 °FCool.5 mph67%30.18 "HgN/A
7:50 PM50 °FCool.7 mph71%30.18 "HgN/A
6:50 PM52 °FPassing clouds.6 mph67%30.18 "HgN/A
5:50 PM52 °FPassing clouds.8 mph67%30.18 "HgN/A
4:50 PM50 °FPassing clouds.9 mph71%30.18 "HgN/A
3:50 PM52 °FScattered clouds.10 mph67%30.18 "HgN/A
2:50 PM50 °FScattered clouds.8 mph71%30.18 "HgN/A
Weather by CustomWeather, © 2015

See weather overviewHow to use our weather pages